Location: Niverville
(49.6028°N, 97.0419°W)
Time: 02:51:00
(UTC-05:00)

Cosmos 1154 Rocket - Visible Passes

Search period start: 24 April 2014 00:00
Search period end: 04 May 2014 00:00
Orbit: 348 x 361 km, 81.2° (Epoch: 23 April)

Date Brightness Start Highest point End Pass type
(mag) Time Alt. Az. Time Alt. Az. Time Alt. Az.
24 Apr 2.0 05:05:20 10° N 05:08:14 78° E 05:11:06 10° SSE visible
25 Apr 5.2 04:01:07 10° NNE 04:02:45 14° ENE 04:04:22 10° E visible
25 Apr 2.8 05:32:49 10° NNW 05:35:23 29° W 05:37:56 10° SSW visible
26 Apr 3.4 04:27:21 10° N 04:30:05 37° ENE 04:32:46 10° SE visible
27 Apr 1.9 04:54:12 10° NNW 04:57:03 59° W 04:59:52 10° S visible
28 Apr 4.6 03:49:02 10° NNE 03:51:18 20° ENE 03:53:32 10° ESE visible
28 Apr 3.5 05:21:35 10° NW 05:23:42 19° W 05:25:47 10° SW visible
29 Apr 2.3 04:15:14 10° N 04:18:06 63° ENE 04:20:12 16° SSE visible
30 Apr 5.1 03:10:43 10° NE 03:11:53 12° ENE 03:13:03 10° E visible
30 Apr 2.6 04:41:54 10° NNW 04:44:34 35° W 04:45:55 21° SSW visible
01 May 3.7 03:35:55 10° N 03:38:31 30° ENE 03:39:58 19° ESE visible
01 May 4.0 05:09:21 10° WNW 05:10:42 13° W 05:11:34 11° WSW visible
02 May 1.7 04:01:56 10° NNW 04:04:48 78° W 04:05:33 45° S visible
03 May 4.6 02:56:22 10° NNE 02:58:18 16° ENE 02:59:27 14° E visible
03 May 3.2 04:28:24 10° NW 04:30:46 23° W 04:31:02 23° WSW visible
